LEMUR-2-OSCARLATOR (46299 NORAD) Tracking and Keplerian Element Data

This shows tracking and keplerian element data for the satellite.

Feedback or suggestion? Click here.




ElementValue
Catalog46299
NameLEMUR-2-OSCARLATOR
Epoch Orbit314
Epoch Day268.34231457
Epoch Year2020
RAAN341.0994
Inclination97.5182
Eccentricity0.0001316
Argument of Perigee134.9634
Mean Anonmoly225.1702
Mean Motion15.10558328
Decay Rate1.579E-05
L11 46299U 20061AD 20268.34231457 .00001579 00000-0 99564-4 0 9995
L22 46299 97.5182 341.0994 0001316 134.9634 225.1702 15.10558328 3140

Live tracking and technical data element details for LEMUR-2-OSCARLATOR (NORAD 46299). LEMUR-2-OSCARLATOR can be tracked NOW for your location showing map with azimuth and elevation plus other details from your city location.

Track the satellite on the map from your city or location and see movement details for azimuth, elevation, latitude, longitude, range, height, and movement on the map or in text.







IsCatalogInMostPopularTable: catalog: 46299, numindb: -1

Insert: records affected: 1


GetName: 46299 LEMUR-2-OSCARLATOR

Hit Count: inserted at: Mon, 28 Sep 2020 15:25:56 GMT